TimeCST,TemperatureF,Dew PointF,Humidity,Sea Level PressureIn,VisibilityMPH,Wind Direction,Wind SpeedMPH,Gust SpeedMPH,PrecipitationIn,Events,Conditions,WindDirDegrees,DateUTC
12:56 AM,63.0,57.9,84,30.13,10.0,South,8.1,-,N/A,,Mostly Cloudy,180,2012-12-03 06:56:00
1:56 AM,61.9,57.9,87,30.13,10.0,South,9.2,-,N/A,,Mostly Cloudy,180,2012-12-03 07:56:00
2:56 AM,61.0,57.9,90,30.14,10.0,South,6.9,-,N/A,,Mostly Cloudy,180,2012-12-03 08:56:00
3:56 AM,61.0,56.8,86,30.13,10.0,South,11.5,-,N/A,,Scattered Clouds,190,2012-12-03 09:56:00
4:56 AM,59.0,55.9,90,30.13,10.0,South,9.2,-,N/A,,Partly Cloudy,180,2012-12-03 10:56:00
5:56 AM,59.0,55.9,90,30.14,10.0,South,6.9,-,N/A,,Mostly Cloudy,180,2012-12-03 11:56:00
6:56 AM,59.9,55.9,87,30.14,10.0,South,10.4,-,N/A,,Mostly Cloudy,190,2012-12-03 12:56:00
8:56 AM,64.9,57.9,78,30.15,10.0,SSW,17.3,-,N/A,,Clear,200,2012-12-03 14:56:00
10:56 AM,70.9,59.0,66,30.13,10.0,SSW,15.0,-,N/A,,Scattered Clouds,210,2012-12-03 16:56:00
11:56 AM,73.9,59.9,61,30.09,10.0,SSW,17.3,23.0,N/A,,Scattered Clouds,200,2012-12-03 17:56:00
12:56 PM,73.9,59.9,61,30.08,10.0,SW,18.4,25.3,N/A,,Scattered Clouds,220,2012-12-03 18:56:00
1:56 PM,74.8,59.0,58,30.07,10.0,SSW,13.8,20.7,N/A,,Scattered Clouds,210,2012-12-03 19:56:00
2:56 PM,73.9,56.8,55,30.05,10.0,SSW,13.8,20.7,N/A,,Scattered Clouds,210,2012-12-03 20:56:00
3:56 PM,70.9,56.8,61,30.07,10.0,SW,11.5,19.6,N/A,,Partly Cloudy,220,2012-12-03 21:56:00
4:56 PM,66.9,54.0,63,30.07,10.0,South,10.4,-,N/A,,Partly Cloudy,190,2012-12-03 22:56:00
5:56 PM,63.0,52.9,70,30.07,10.0,South,8.1,-,N/A,,Clear,170,2012-12-03 23:56:00
6:56 PM,63.9,50.9,63,30.06,10.0,South,10.4,-,N/A,,Clear,170,2012-12-04 00:56:00
7:56 PM,63.0,50.9,65,30.07,10.0,South,12.7,-,N/A,,Partly Cloudy,180,2012-12-04 01:56:00
8:56 PM,63.9,52.0,65,30.07,10.0,South,13.8,-,N/A,,Mostly Cloudy,180,2012-12-04 02:56:00
9:56 PM,63.0,52.0,67,30.08,10.0,South,10.4,-,N/A,,Mostly Cloudy,180,2012-12-04 03:56:00
10:56 PM,63.9,52.0,65,30.08,10.0,South,12.7,-,N/A,,Mostly Cloudy,190,2012-12-04 04:56:00
11:56 PM,63.9,52.9,67,30.08,10.0,SSW,10.4,-,N/A,,Overcast,200,2012-12-04 05:56:00